User: anonymous   Login
Location: Unspecified
(0.0000°N, 0.0000°E)
Time: 04:50:32
(UTC+00:00)
Language:

SR - Orbit

View from above orbital plane
View from above orbital plane
View from above satellite
View from above satellite

Ground track
Ground track

The orbit data is extracted from the following two-line orbital elements,

1 00046U 60007B   14304.07967998  .00000769  00000-0  17608-3 0  7726
2 00046 066.6914 199.9425 0219099 224.8185 133.5047 14.47936333841181
Epoch (UTC): 31 October 2014 01:54:44
Eccentricity: 0.0219099
inclination: 66.6914°
perigee height: 576 km
apogee height: 888 km
right ascension of ascending node: 199.9425°
argument of perigee: 224.8185°
revolutions per day: 14.47936333
mean anomaly at epoch: 133.5047°
orbit number at epoch: 84118

The dashed part of the orbit path shows where the satellite is in the earth's shadow,  

DLR